Weather WX

World > North America > United States > North Dakota

Hazen, North Dakota Regional Weather

Lat: 47.29N, Lon: 101.62W
Wx Zone: NDZ019
Feedback

Hazen, ND Regional Weather

Expires:201907192200;;319205
ASUS43 KBIS 192110
RWRND 

NORTH DAKOTA REGIONAL WEATHER ROUNDUP
NATIONAL WEATHER SERVICE BISMARCK ND
400 PM CDT FRI JUL 19 2019

NOTE: "FAIR" INDICATES FEW OR NO CLOUDS BELOW 12,000 FEET WITH NO
SIGNIFICANT WEATHER AND/OR OBSTRUCTIONS TO VISIBILITY.



NDZ018>021-031>035-040>046-192200-
SOUTHWEST NORTH DAKOTA
  
CITY           SKY/WX    TMP DP  RH WIND       PRES   REMARKS
BISMARCK       SUNNY     81  46  29 NE8G22    29.79S                  
DICKINSON      SUNNY     77  45  32 SW5       29.82F                  
GARRISON         N/A     75  45  34 W12G23    29.79S                  
HETTINGER ARPT SUNNY     78  49  35 N8        29.85S                  
$$
 

SKY/WX - Weather  TMP - Temperature  DP - Dew Point  RH - Relative Humidity
WIND - Wind Direction/Speed PRES - Barometric Pressure VSB - Visibility
WCI - Wind Chill Index E13G22 Wind - East Wind 13 mph/Gusts of 22 mph